Time,TemperatureF,DewpointF,PressureIn,WindDirection,WindDirectionDegrees,WindSpeedMPH,WindSpeedGustMPH,Humidity,HourlyPrecipIn,Conditions,Clouds,dailyrainin,SolarRadiationWatts/m^2,SoftwareType,DateUTC
2013-01-28 00:02:00,14.0,12.0,-100.00,West,280,1.0,2.0,90,0.00,,,-99.99,0.000000,,2013-01-28 07:02:00,
2013-01-28 00:11:00,14.0,12.0,-100.00,West,280,1.0,2.0,90,0.00,,,-99.99,0.000000,,2013-01-28 07:11:00,
2013-01-28 00:32:00,14.0,11.0,-100.00,West,269,0.0,2.0,88,0.00,,,0.07,0.000000,,2013-01-28 07:32:00,
2013-01-28 00:42:00,14.0,11.0,-100.00,West,269,0.0,2.0,88,0.00,,,0.07,0.000000,,2013-01-28 07:42:00,
2013-01-28 00:52:00,14.0,11.0,-100.00,West,269,0.0,2.0,88,0.00,,,0.07,0.000000,,2013-01-28 07:52:00,
2013-01-28 01:01:00,14.0,11.0,-100.00,West,269,0.0,2.0,88,0.00,,,0.07,0.000000,,2013-01-28 08:01:00,
2013-01-28 01:11:00,14.0,11.0,-100.00,West,269,0.0,2.0,88,0.00,,,0.07,0.000000,,2013-01-28 08:11:00,
2013-01-28 01:32:00,12.0,9.0,-100.00,West,281,1.0,2.0,89,0.00,,,0.07,0.000000,,2013-01-28 08:32:00,
2013-01-28 01:42:00,12.0,9.0,-100.00,West,281,1.0,2.0,89,0.00,,,0.07,0.000000,,2013-01-28 08:42:00,
2013-01-28 01:52:00,12.0,9.0,-100.00,West,281,1.0,2.0,89,0.00,,,0.07,0.000000,,2013-01-28 08:52:00,
2013-01-28 02:01:00,12.0,9.0,-100.00,West,281,1.0,2.0,89,0.00,,,0.07,0.000000,,2013-01-28 09:01:00,
2013-01-28 02:11:00,12.0,9.0,-100.00,West,281,1.0,2.0,89,0.00,,,0.07,0.000000,,2013-01-28 09:11:00,
2013-01-28 02:32:00,13.0,10.0,-100.00,WSW,256,1.0,2.0,89,0.00,,,0.07,0.000000,,2013-01-28 09:32:00,
2013-01-28 02:42:00,13.0,10.0,-100.00,WSW,256,1.0,2.0,89,0.00,,,0.07,0.000000,,2013-01-28 09:42:00,
2013-01-28 02:52:00,13.0,10.0,-100.00,WSW,256,1.0,2.0,89,0.00,,,0.07,0.000000,,2013-01-28 09:52:00,
2013-01-28 03:01:00,13.0,10.0,-100.00,WSW,256,1.0,2.0,89,0.00,,,0.07,0.000000,,2013-01-28 10:01:00,
2013-01-28 03:11:00,13.0,10.0,-100.00,WSW,256,1.0,2.0,89,0.00,,,0.07,0.000000,,2013-01-28 10:11:00,
2013-01-28 03:32:00,12.0,9.0,-100.00,WNW,289,1.0,4.0,88,0.00,,,0.07,0.000000,,2013-01-28 10:32:00,
2013-01-28 03:42:00,12.0,9.0,-100.00,WNW,289,1.0,4.0,88,0.00,,,0.07,0.000000,,2013-01-28 10:42:00,
2013-01-28 03:52:00,12.0,9.0,-100.00,WNW,289,1.0,4.0,88,0.00,,,0.07,0.000000,,2013-01-28 10:52:00,
2013-01-28 04:02:00,12.0,9.0,-100.00,WNW,289,1.0,4.0,88,0.00,,,0.07,0.000000,,2013-01-28 11:02:00,
2013-01-28 04:11:00,12.0,9.0,-100.00,WNW,289,1.0,4.0,88,0.00,,,0.07,0.000000,,2013-01-28 11:11:00,
2013-01-28 04:32:00,13.0,10.0,-100.00,SSE,151,1.0,3.0,89,0.00,,,0.07,0.000000,,2013-01-28 11:32:00,
2013-01-28 04:42:00,13.0,10.0,-100.00,SSE,151,1.0,3.0,89,0.00,,,0.07,0.000000,,2013-01-28 11:42:00,
2013-01-28 04:52:00,13.0,10.0,-100.00,SSE,151,1.0,3.0,89,0.00,,,0.07,0.000000,,2013-01-28 11:52:00,
2013-01-28 05:03:00,13.0,10.0,-100.00,SSE,151,1.0,3.0,89,0.00,,,0.07,0.000000,,2013-01-28 12:03:00,
2013-01-28 05:11:00,13.0,10.0,-100.00,SSE,151,1.0,3.0,89,0.00,,,0.07,0.000000,,2013-01-28 12:11:00,
2013-01-28 05:33:00,13.0,10.0,-100.00,SW,224,1.0,5.0,88,0.00,,,0.07,0.000000,,2013-01-28 12:33:00,
2013-01-28 05:42:00,13.0,10.0,-100.00,SW,224,1.0,5.0,88,0.00,,,0.07,0.000000,,2013-01-28 12:42:00,
2013-01-28 05:52:00,13.0,10.0,-100.00,SW,224,1.0,5.0,88,0.00,,,0.07,0.000000,,2013-01-28 12:52:00,
2013-01-28 06:02:00,13.0,10.0,-100.00,SW,224,1.0,5.0,88,0.00,,,0.07,0.000000,,2013-01-28 13:02:00,
2013-01-28 06:11:00,13.0,10.0,-100.00,SW,224,1.0,5.0,88,0.00,,,0.07,0.000000,,2013-01-28 13:11:00,
2013-01-28 06:33:00,13.0,10.0,-100.00,WNW,285,2.0,3.0,88,0.00,,,0.07,0.000000,,2013-01-28 13:33:00,
2013-01-28 06:42:00,13.0,10.0,-100.00,WNW,285,2.0,3.0,88,0.00,,,0.07,0.000000,,2013-01-28 13:42:00,
2013-01-28 06:53:00,13.0,10.0,-100.00,WNW,285,2.0,3.0,88,0.00,,,0.07,0.000000,,2013-01-28 13:53:00,
2013-01-28 07:02:00,13.0,10.0,-100.00,WNW,285,2.0,3.0,88,0.00,,,0.07,0.000000,,2013-01-28 14:02:00,
2013-01-28 07:11:00,13.0,10.0,-100.00,WNW,285,2.0,3.0,88,0.00,,,0.07,0.000000,,2013-01-28 14:11:00,
2013-01-28 07:43:00,13.0,10.0,-100.00,SW,225,1.0,4.0,87,0.00,,,0.07,0.000000,,2013-01-28 14:43:00,
2013-01-28 07:53:00,13.0,10.0,-100.00,SW,225,1.0,4.0,87,0.00,,,0.07,0.000000,,2013-01-28 14:53:00,
2013-01-28 08:03:00,13.0,10.0,-100.00,SW,225,1.0,4.0,87,0.00,,,0.07,0.000000,,2013-01-28 15:03:00,
2013-01-28 08:12:00,13.0,10.0,-100.00,SW,225,1.0,4.0,87,0.00,,,0.07,0.000000,,2013-01-28 15:12:00,
2013-01-28 08:33:00,13.0,10.0,-100.00,West,280,1.0,2.0,87,0.00,,,0.07,0.000000,,2013-01-28 15:33:00,
2013-01-28 08:43:00,13.0,10.0,-100.00,West,280,1.0,2.0,87,0.00,,,0.07,0.000000,,2013-01-28 15:43:00,
2013-01-28 08:53:00,13.0,10.0,-100.00,West,280,1.0,2.0,87,0.00,,,0.07,0.000000,,2013-01-28 15:53:00,
2013-01-28 09:03:00,13.0,10.0,-100.00,West,280,1.0,2.0,87,0.00,,,0.07,0.000000,,2013-01-28 16:03:00,
2013-01-28 09:11:00,13.0,10.0,-100.00,West,280,1.0,2.0,87,0.00,,,0.07,0.000000,,2013-01-28 16:11:00,
2013-01-28 09:33:00,13.0,10.0,-100.00,SW,236,2.0,6.0,86,0.00,,,0.07,0.000000,,2013-01-28 16:33:00,
2013-01-28 09:43:00,13.0,10.0,-100.00,SW,236,2.0,6.0,86,0.00,,,0.07,0.000000,,2013-01-28 16:43:00,
2013-01-28 09:53:00,13.0,10.0,-100.00,SW,236,2.0,6.0,86,0.00,,,0.07,0.000000,,2013-01-28 16:53:00,
2013-01-28 10:01:00,13.0,10.0,-100.00,SW,236,2.0,6.0,86,0.00,,,0.07,0.000000,,2013-01-28 17:01:00,
2013-01-28 10:11:00,13.0,10.0,-100.00,SW,236,2.0,6.0,86,0.00,,,0.07,0.000000,,2013-01-28 17:11:00,
2013-01-28 10:33:00,15.0,9.0,-100.00,WSW,237,1.0,4.0,76,0.00,,,0.07,15.000000,,2013-01-28 17:33:00,
2013-01-28 10:42:00,15.0,9.0,-100.00,WSW,237,1.0,4.0,76,0.00,,,0.07,15.000000,,2013-01-28 17:42:00,
2013-01-28 10:52:00,15.0,9.0,-100.00,WSW,237,1.0,4.0,76,0.00,,,0.07,15.000000,,2013-01-28 17:52:00,
2013-01-28 11:02:00,15.0,9.0,-100.00,WSW,237,1.0,4.0,76,0.00,,,0.07,15.000000,,2013-01-28 18:02:00,
2013-01-28 11:12:00,15.0,9.0,-100.00,WSW,237,1.0,4.0,76,0.00,,,0.07,15.000000,,2013-01-28 18:12:00,
2013-01-28 11:33:00,20.0,10.0,-100.00,SSW,199,2.0,5.0,65,0.00,,,0.07,46.000000,,2013-01-28 18:33:00,
2013-01-28 11:42:00,20.0,10.0,-100.00,SSW,199,2.0,5.0,65,0.00,,,0.07,46.000000,,2013-01-28 18:42:00,
2013-01-28 11:52:00,20.0,10.0,-100.00,SSW,199,2.0,5.0,65,0.00,,,0.07,46.000000,,2013-01-28 18:52:00,
2013-01-28 12:02:00,20.0,10.0,-100.00,SSW,199,2.0,5.0,65,0.00,,,0.07,46.000000,,2013-01-28 19:02:00,
2013-01-28 12:12:00,20.0,10.0,-100.00,SSW,199,2.0,5.0,65,0.00,,,0.07,46.000000,,2013-01-28 19:12:00,
2013-01-28 12:42:00,21.0,11.0,-100.00,SW,225,3.0,7.0,64,0.00,,,0.06,59.000000,,2013-01-28 19:42:00,
2013-01-28 12:52:00,21.0,11.0,-100.00,SW,225,3.0,7.0,64,0.00,,,0.06,59.000000,,2013-01-28 19:52:00,
2013-01-28 13:02:00,21.0,11.0,-100.00,SW,225,3.0,7.0,64,0.00,,,0.06,59.000000,,2013-01-28 20:02:00,
2013-01-28 13:11:00,21.0,11.0,-100.00,SW,225,3.0,7.0,64,0.00,,,0.06,59.000000,,2013-01-28 20:11:00,
2013-01-28 13:33:00,28.0,12.0,-100.00,South,190,3.0,8.0,51,0.00,,,0.04,80.000000,,2013-01-28 20:33:00,
2013-01-28 14:11:00,28.0,12.0,-100.00,South,190,3.0,8.0,51,0.00,,,0.04,80.000000,,2013-01-28 21:11:00,
2013-01-28 14:33:00,21.0,11.0,-100.00,SSW,205,2.0,7.0,64,0.01,,,0.05,51.000000,,2013-01-28 21:33:00,
2013-01-28 14:43:00,21.0,11.0,-100.00,SSW,205,2.0,7.0,64,0.01,,,0.05,51.000000,,2013-01-28 21:43:00,
2013-01-28 14:53:00,21.0,11.0,-100.00,SSW,205,2.0,7.0,64,0.01,,,0.05,51.000000,,2013-01-28 21:53:00,
2013-01-28 15:01:00,21.0,11.0,-100.00,SSW,205,2.0,7.0,64,0.01,,,0.05,51.000000,,2013-01-28 22:01:00,
2013-01-28 15:11:00,21.0,11.0,-100.00,SSW,205,2.0,7.0,64,0.01,,,0.05,51.000000,,2013-01-28 22:11:00,
2013-01-28 15:33:00,23.0,12.0,-100.00,SSW,211,2.0,6.0,62,0.00,,,-99.99,51.000000,,2013-01-28 22:33:00,
2013-01-28 15:42:00,23.0,12.0,-100.00,SSW,211,2.0,6.0,62,0.00,,,-99.99,51.000000,,2013-01-28 22:42:00,
2013-01-28 15:52:00,23.0,12.0,-100.00,SSW,211,2.0,6.0,62,0.00,,,-99.99,51.000000,,2013-01-28 22:52:00,
2013-01-28 16:01:00,23.0,12.0,-100.00,SSW,211,2.0,6.0,62,0.00,,,-99.99,51.000000,,2013-01-28 23:01:00,
2013-01-28 16:11:00,23.0,12.0,-100.00,SSW,211,2.0,6.0,62,0.00,,,-99.99,51.000000,,2013-01-28 23:11:00,
2013-01-28 16:33:00,20.0,12.0,-100.00,SW,219,2.0,12.0,70,0.00,,,0.01,29.000000,,2013-01-28 23:33:00,
2013-01-28 16:42:00,20.0,12.0,-100.00,SW,219,2.0,12.0,70,0.00,,,0.01,29.000000,,2013-01-28 23:42:00,
2013-01-28 16:53:00,20.0,12.0,-100.00,SW,219,2.0,12.0,70,0.00,,,0.01,29.000000,,2013-01-28 23:53:00,
2013-01-28 17:02:00,20.0,12.0,-100.00,SW,219,2.0,12.0,70,0.00,,,0.01,29.000000,,2013-01-29 00:02:00,
2013-01-28 17:11:00,20.0,12.0,-100.00,SW,219,2.0,12.0,70,0.00,,,0.01,29.000000,,2013-01-29 00:11:00,
2013-01-28 17:33:00,19.0,13.0,-100.00,SW,219,2.0,7.0,76,0.00,,,0.01,20.000000,,2013-01-29 00:33:00,
2013-01-28 17:42:00,19.0,13.0,-100.00,SW,219,2.0,7.0,76,0.00,,,0.01,20.000000,,2013-01-29 00:42:00,
2013-01-28 17:52:00,19.0,13.0,-100.00,SW,219,2.0,7.0,76,0.00,,,0.01,20.000000,,2013-01-29 00:52:00,
2013-01-28 18:02:00,19.0,13.0,-100.00,SW,219,2.0,7.0,76,0.00,,,0.01,20.000000,,2013-01-29 01:02:00,
2013-01-28 18:11:00,19.0,13.0,-100.00,SW,219,2.0,7.0,76,0.00,,,0.01,20.000000,,2013-01-29 01:11:00,
2013-01-28 18:32:00,16.0,13.0,-100.00,SW,233,2.0,4.0,89,0.00,,,0.01,8.000000,,2013-01-29 01:32:00,
2013-01-28 18:42:00,16.0,13.0,-100.00,SW,233,2.0,4.0,89,0.00,,,0.01,8.000000,,2013-01-29 01:42:00,
2013-01-28 18:52:00,16.0,13.0,-100.00,SW,233,2.0,4.0,89,0.00,,,0.01,8.000000,,2013-01-29 01:52:00,
2013-01-28 19:01:00,16.0,13.0,-100.00,SW,233,2.0,4.0,89,0.00,,,0.01,8.000000,,2013-01-29 02:01:00,
2013-01-28 19:11:00,16.0,13.0,-100.00,SW,233,2.0,4.0,89,0.00,,,0.01,8.000000,,2013-01-29 02:11:00,
2013-01-28 19:42:00,15.0,13.0,-100.00,WSW,246,2.0,5.0,90,0.00,,,0.01,0.000000,,2013-01-29 02:42:00,
2013-01-28 19:53:00,15.0,13.0,-100.00,WSW,246,2.0,5.0,90,0.00,,,0.01,0.000000,,2013-01-29 02:53:00,
2013-01-28 20:02:00,15.0,13.0,-100.00,WSW,246,2.0,5.0,90,0.00,,,0.01,0.000000,,2013-01-29 03:02:00,
2013-01-28 20:11:00,15.0,13.0,-100.00,WSW,246,2.0,5.0,90,0.00,,,0.01,0.000000,,2013-01-29 03:11:00,
2013-01-28 20:32:00,15.0,12.0,-100.00,SW,229,2.0,4.0,89,0.00,,,0.01,0.000000,,2013-01-29 03:32:00,
2013-01-28 20:42:00,15.0,12.0,-100.00,SW,229,2.0,4.0,89,0.00,,,0.01,0.000000,,2013-01-29 03:42:00,
2013-01-28 20:53:00,15.0,12.0,-100.00,SW,229,2.0,4.0,89,0.00,,,0.01,0.000000,,2013-01-29 03:53:00,
2013-01-28 21:01:00,15.0,12.0,-100.00,SW,229,2.0,4.0,89,0.00,,,0.01,0.000000,,2013-01-29 04:01:00,
2013-01-28 21:11:00,15.0,12.0,-100.00,SW,229,2.0,4.0,89,0.00,,,0.01,0.000000,,2013-01-29 04:11:00,
2013-01-28 21:32:00,15.0,13.0,-100.00,WSW,241,2.0,3.0,90,0.00,,,0.01,0.000000,,2013-01-29 04:32:00,
2013-01-28 21:42:00,15.0,13.0,-100.00,WSW,241,2.0,3.0,90,0.00,,,0.01,0.000000,,2013-01-29 04:42:00,
2013-01-28 21:52:00,15.0,13.0,-100.00,WSW,241,2.0,3.0,90,0.00,,,0.01,0.000000,,2013-01-29 04:52:00,
2013-01-28 22:03:00,15.0,13.0,-100.00,WSW,241,2.0,3.0,90,0.00,,,0.01,0.000000,,2013-01-29 05:03:00,
2013-01-28 22:12:00,15.0,13.0,-100.00,WSW,241,2.0,3.0,90,0.00,,,0.01,0.000000,,2013-01-29 05:12:00,
2013-01-28 22:32:00,15.0,13.0,-100.00,SW,224,2.0,3.0,90,0.00,,,0.01,0.000000,,2013-01-29 05:32:00,
2013-01-28 22:42:00,15.0,13.0,-100.00,SW,224,2.0,3.0,90,0.00,,,0.01,0.000000,,2013-01-29 05:42:00,
2013-01-28 22:52:00,15.0,13.0,-100.00,SW,224,2.0,3.0,90,0.00,,,0.01,0.000000,,2013-01-29 05:52:00,
2013-01-28 23:01:00,15.0,13.0,-100.00,SW,224,2.0,3.0,90,0.00,,,0.01,0.000000,,2013-01-29 06:01:00,
2013-01-28 23:11:00,15.0,13.0,-100.00,SW,224,2.0,3.0,90,0.00,,,0.01,0.000000,,2013-01-29 06:11:00,
2013-01-28 23:32:00,15.0,13.0,-100.00,SW,236,1.0,3.0,90,0.00,,,0.01,0.000000,,2013-01-29 06:32:00,
2013-01-28 23:42:00,15.0,13.0,-100.00,SW,236,1.0,3.0,90,0.00,,,0.01,0.000000,,2013-01-29 06:42:00,
2013-01-28 23:52:00,15.0,13.0,-100.00,SW,236,1.0,3.0,90,0.00,,,0.01,0.000000,,2013-01-29 06:52:00,